EXOCUBE (CP10)

Last updated on Mon Jan 25 2021 10:54:00 GMT+0000 (Greenwich Mean Time)

1 40380U 15003E 21024.85470025 .00000906 00000-0 43349-4 0 9996 2 40380 99.0885 121.9311 0135414 340.9018 18.7159 15.15093747330062
UTC large
Height (km)
Speed (km/s)
/
Latitude / Longitude
Inclination (degrees)
Orbital Period (minutes)
Azimuth
Elevation
Range (km)
Doppler Factor

Next 0 passes for location: London (51.5072 / 0.1276)

Sorry there are no passes over London.